Wind_Speed
27 29 22 23 23 24 23 22 22 21 21 20 21 18 21 22 22 22 20 15 14 13 14 14 12 11 10 7 12 4 9 9 4 6 13 12 13 9 15 16 21 17 15 22 20 9 15
27 32 33 26 25 25 26 22 21 21 20 20 23 22 21 22 22 23 19 20 13 13 14 15 14 11 9 15 4 4 6 9 6 6 8 8 11 9 18 19 20 18 20 20 19 27 29
28 29 30 33 32 28 26 22 22 21 22 20 23 22 20 22 23 23 19 20 13 9 14 14 14 10 13 18 8 10 11 9 7 7 11 13 20 19 5 16 30 14 17 4 5 8 11
29 30 30 31 35 33 27 22 23 22 24 21 22 22 20 21 19 21 19 20 11 11 12 12 11 8 12 13 14 10 9 9 8 7 7 7 15 17 9 17 20 22 14 8 5 2 11
29 29 31 31 33 35 32 23 22 22 25 23 22 21 21 20 19 19 19 21 8 10 13 8 5 5 12 8 7 8 10 7 6 5 7 8 7 5 9 7 15 17 7 16 3 1 3
31 31 32 33 31 32 33 24 23 23 25 25 21 19 21 15 17 18 19 6 5 7 5 5 9 7 7 9 10 8 6 5 9 8 5 5 4 2 4 9 15 19 10 7 11 5 14
30 32 30 30 32 28 27 23 22 23 25 25 21 18 18 16 16 17 11 4 4 2 9 8 4 11 13 10 7 3 3 6 8 4 2 4 4 8 14 13 8 12 15 10 8 12 10
34 31 32 31 31 27 30 23 22 22 24 24 21 17 16 15 13 12 7 2 5 3 8 11 9 10 9 4 5 1 1 5 4 4 7 5 4 0 14 20 16 17 18 17 16 12 9
36 35 32 32 27 27 30 21 19 21 23 23 21 16 15 11 11 8 6 3 9 3 5 5 5 6 4 2 2 3 1 3 1 4 9 1 1 4 11 18 12 13 13 7 11 12 12
32 37 33 33 30 25 25 19 18 20 21 21 20 17 12 7 3 3 3 5 4 1 2 4 2 0 2 2 1 1 4 2 3 4 12 6 4 6 13 12 14 8 9 19 15 6 4
36 31 35 33 33 28 24 18 17 18 18 19 17 14 8 5 3 1 4 3 1 1 2 2 1 2 4 2 1 0 5 6 6 7 5 5 2 7 6 5 2 5 7 8 9 5 3
38 33 32 34 33 26 28 18 16 16 16 15 13 7 3 6 5 1 3 2 3 2 1 2 1 2 2 1 3 6 4 3 4 11 15 10 6 6 7 6 8 8 11 10 6 1 2
37 33 28 34 33 33 29 16 13 14 12 11 2 4 8 7 5 2 4 1 2 2 3 3 2 3 4 4 2 4 4 6 3 3 4 4 3 5 4 3 3 10 8 3 3 3 2
41 40 29 31 32 32 30 17 12 12 9 6 6 8 8 6 7 5 1 2 2 2 1 7 5 1 3 5 2 4 3 4 5 8 4 2 2 1 3 1 5 9 5 4 4 4 3
37 43 32 28 28 33 29 18 12 10 6 5 10 7 4 4 4 4 1 2 2 1 3 1 8 1 2 2 2 5 2 3 3 2 2 2 4 4 4 4 2 7 1 3 3 2 4
39 40 31 28 30 33 31 20 12 10 7 11 11 6 4 3 4 4 2 3 1 0 3 4 3 3 2 4 1 2 3 3 4 1 3 3 4 6 3 3 3 4 2 2 3 2 3
34 39 41 27 34 35 31 19 12 12 10 18 14 5 5 4 5 3 2 2 4 2 2 4 2 2 3 3 2 3 3 2 1 3 6 7 3 3 2 1 4 3 1 2 1 3 1
34 36 39 25 34 36 30 20 15 15 16 21 10 3 6 6 2 4 2 5 2 2 2 1 1 4 3 8 2 3 3 3 2 2 2 4 4 3 0 4 5 6 4 3 3 3 0
42 34 31 30 33 31 29 22 19 18 19 24 10 5 5 7 2 4 3 5 3 4 0 2 2 3 2 4 4 4 6 3 4 1 2 0 3 3 1 2 2 4 5 4 2 3 2
44 44 34 40 28 27 30 22 21 20 23 20 9 4 4 6 6 5 5 6 6 2 2 1 2 3 4 5 3 7 5 4 2 1 1 3 3 3 1 0 5 5 8 7 4 3 4
45 47 17 31 26 30 29 22 22 23 26 18 9 5 8 4 6 8 2 5 7 4 1 2 3 3 2 4 9 4 6 6 4 3 2 1 1 2 4 5 5 2 6 9 7 8 4
51 41 29 29 23 24 28 23 26 25 30 18 7 4 8 3 10 9 5 6 7 5 4 3 2 3 3 6 4 7 6 4 4 6 3 3 1 3 2 2 3 0 4 5 6 7 10
49 31 23 31 23 29 28 27 27 27 32 12 11 12 7 8 4 7 7 4 6 3 3 7 5 8 7 5 9 7 5 3 3 4 4 2 4 2 2 2 4 5 6 8 4 2 1
44 31 23 37 23 32 27 29 27 26 32 15 19 13 4 4 5 6 5 5 4 2 4 2 5 3 2 2 2 1 2 4 5 5 3 2 2 2 1 2 1 3 4 5 2 4 4
44 26 22 46 25 32 31 27 25 25 32 20 19 13 4 4 7 7 8 8 7 1 3 4 5 3 4 3 2 4 2 3 4 4 1 3 3 1 2 3 3 3 2 3 2 4 7
33 23 41 41 31 31 27 24 23 24 29 24 17 16 5 8 3 8 9 15 5 4 3 3 1 3 1 2 2 2 3 4 4 3 2 1 2 2 2 1 2 5 4 3 2 4 5
35 14 39 38 35 31 25 21 22 22 25 24 21 17 10 8 3 4 4 2 3 4 3 4 2 1 2 2 2 2 2 2 4 6 5 2 2 4 4 2 2 4 3 1 3 2 4
29 7 21 31 32 28 23 20 20 21 24 22 23 18 14 9 9 6 7 7 3 3 1 3 4 1 1 2 1 2 2 0 1 0 2 5 4 3 1 1 4 8 1 3 3 5 8
21 20 30 32 32 27 21 17 20 22 22 20 26 20 15 11 10 12 12 9 8 6 4 3 3 7 3 1 1 1 1 1 1 2 2 2 2 1 2 3 6 5 6 6 6 8 11
Wind_Direction
321 314 315 325 325 327 324 327 329 329 330 324 325 324 315 315 319 322 318 276 302 298 298 295 299 320 329 262 273 281 324 290 264 275 219 207 250 223 217 215 213 220 202 221 203 190 209
312 310 309 309 316 316 319 321 324 324 327 318 314 316 308 314 314 316 311 314 270 299 287 293 292 308 308 275 251 292 315 311 270 282 239 244 235 259 247 231 208 200 231 219 173 180 241
306 308 312 306 305 312 305 315 319 321 325 314 312 316 307 310 316 314 305 310 268 270 291 281 293 299 277 262 282 284 305 303 254 246 202 246 229 259 291 231 225 199 201 221 188 199 224
301 304 309 307 300 307 299 311 316 319 323 317 311 314 314 311 310 310 307 306 284 260 292 282 289 291 270 281 280 283 297 282 267 229 211 226 230 260 248 240 226 194 200 187 165 146 223
296 301 304 304 302 298 295 304 314 318 320 319 311 310 308 307 308 309 307 301 268 270 278 269 297 262 281 292 299 296 280 255 220 209 211 201 267 225 248 236 199 186 193 197 247 229 247
295 299 303 306 302 289 294 299 313 316 317 321 312 309 311 308 308 308 310 303 298 288 336 249 256 280 265 309 317 303 251 231 169 187 119 152 308 159 274 214 186 183 175 185 203 171 266
289 294 298 305 304 294 291 294 308 313 316 320 314 308 310 308 310 310 319 351 351 255 224 227 277 261 294 315 294 276 275 186 174 156 102 158 235 186 233 246 200 178 181 150 187 202 222
286 287 293 295 302 293 285 291 304 311 316 317 312 306 303 300 312 309 289 213 346 308 303 237 265 276 284 275 300 108 254 186 160 159 160 187 210 329 295 251 201 196 184 194 177 197 189
284 284 287 293 299 286 278 287 301 311 313 314 313 306 300 313 313 324 183 198 277 334 264 177 262 271 296 267 301 59 170 181 144 172 199 128 111 253 237 213 208 195 178 141 166 161 170
277 280 282 287 287 280 271 285 301 306 309 311 313 306 305 308 4 28 289 253 248 69 277 191 175 324 290 135 245 28 194 73 20 219 196 70 8 297 127 184 214 144 160 145 154 140 140
281 273 275 278 286 277 270 278 294 300 307 311 314 311 303 217 170 87 251 226 202 77 274 47 224 287 278 104 184 34 176 165 168 152 206 80 348 33 159 136 178 115 118 106 118 170 64
292 269 267 275 275 274 264 266 284 294 303 311 315 319 75 108 112 182 249 125 90 230 155 117 10 16 243 161 142 165 209 184 29 57 64 85 39 9 330 346 55 100 90 75 67 109 49
293 290 257 268 271 266 265 256 272 286 297 310 296 99 119 145 121 236 124 91 232 301 211 156 186 359 322 41 99 161 124 67 55 123 57 56 30 323 275 72 111 121 125 109 44 36 199
288 287 277 258 262 255 252 245 257 270 283 292 167 133 121 154 148 156 151 240 260 187 27 94 104 35 3 13 49 85 117 63 7 51 84 96 54 26 230 71 167 172 207 127 146 169 164
295 284 292 248 251 249 236 231 239 251 251 209 168 149 144 192 136 126 271 250 109 30 341 61 127 192 84 19 314 40 57 111 167 114 41 121 79 233 185 320 22 222 349 348 37 330 99
289 283 295 257 245 243 237 219 228 227 210 183 159 134 172 198 122 145 248 311 329 25 335 301 22 31 101 131 98 290 26 333 124 321 210 73 77 353 87 318 40 55 147 74 346 109 138
308 280 298 285 241 240 226 207 213 206 186 172 151 175 222 201 106 227 242 146 256 145 287 342 88 99 94 152 228 173 43 298 266 156 302 156 103 336 300 284 168 135 12 278 65 74 102
310 303 299 274 231 236 215 205 198 194 177 170 162 178 201 150 176 235 255 172 250 160 177 271 295 128 153 164 108 64 123 30 143 200 141 41 85 117 358 326 328 310 217 225 115 258 28
310 317 301 227 226 226 214 204 186 193 185 162 166 128 183 164 193 199 140 167 274 187 90 211 128 340 178 138 121 126 94 140 125 303 48 227 121 102 90 319 243 249 228 238 259 66 230
315 323 321 212 224 224 207 194 182 189 178 160 153 144 158 196 259 288 172 177 159 171 114 306 92 228 224 130 145 127 121 150 165 14 4 339 212 80 172 90 148 191 207 210 170 119 205
319 327 247 211 220 214 204 181 185 185 178 171 190 162 176 181 220 220 144 189 170 158 165 257 168 328 354 131 122 104 106 139 238 154 224 254 92 77 49 39 44 52 206 217 193 207 197
316 320 215 210 220 219 199 178 187 182 180 184 177 157 172 180 199 208 177 219 177 121 351 152 117 179 301 75 10 125 151 174 177 188 211 149 151 108 301 65 57 59 284 283 245 210 229
316 317 243 212 220 216 185 181 186 185 185 182 195 165 169 144 193 192 181 168 122 112 62 27 344 103 87 57 22 38 37 71 66 173 178 148 134 114 112 46 348 304 219 216 215 263 330
321 347 214 213 215 203 179 181 189 189 189 184 185 166 185 158 197 178 136 107 131 56 151 48 337 92 95 81 80 93 123 107 96 22 27 144 114 88 218 1 244 182 52 29 34 84 16
316 293 213 218 205 182 175 176 191 189 192 194 174 165 188 130 145 111 137 113 130 65 86 114 50 61 121 170 185 140 153 166 97 47 118 349 176 127 142 214 139 125 166 142 173 81 36
333 270 193 218 194 176 170 179 192 192 193 198 184 169 126 122 47 155 143 159 140 171 174 133 58 58 123 250 236 198 177 160 155 134 348 307 329 156 188 266 300 106 87 22 342 173 68
333 208 200 210 183 166 162 185 192 189 188 193 182 164 136 101 53 86 108 167 89 150 108 124 101 108 358 249 226 235 109 352 173 176 176 182 233 194 224 262 338 24 46 182 166 177 46
318 255 195 204 174 166 166 182 186 179 177 177 172 164 152 104 71 92 98 108 103 15 128 123 116 162 350 254 84 337 73 50 286 260 162 164 155 190 162 293 295 356 335 10 60 53 8
304 237 190 187 168 168 172 182 182 173 171 172 164 165 157 112 116 108 99 106 115 100 92 64 67 39 54 103 100 42 36 319 74 211 2 31 47 56 66 169 130 71 91 121 44 15 350
Height
1542 1539 1536 1533 1531 1527 1525 1522 1518 1516 1513 1511 1508 1504 1501 1499 1496 1493 1492 1489 1488 1487 1484 1483 1481 1480 1479 1479 1475 1470 1470 1469 1470 1470 1470 1472 1476 1476 1474 1475 1479 1481 1475 1480 1482 1488 1489
1538 1537 1533 1530 1527 1524 1522 1519 1515 1512 1509 1507 1505 1501 1498 1496 1493 1491 1488 1485 1485 1484 1483 1481 1480 1479 1480 1478 1472 1471 1468 1468 1468 1468 1467 1470 1472 1473 1473 1472 1472 1475 1477 1478 1485 1488 1488
1534 1532 1530 1526 1524 1521 1517 1515 1513 1509 1506 1503 1502 1497 1494 1492 1490 1488 1484 1482 1479 1480 1480 1479 1478 1477 1478 1474 1471 1470 1468 1467 1467 1469 1469 1471 1472 1474 1473 1470 1468 1474 1479 1480 1488 1487 1490
1530 1528 1525 1522 1519 1517 1513 1511 1509 1506 1502 1499 1497 1494 1491 1488 1487 1485 1482 1478 1476 1477 1477 1477 1477 1476 1474 1470 1468 1467 1467 1466 1465 1465 1467 1467 1471 1472 1475 1467 1463 1469 1476 1486 1486 1490 1489
1525 1522 1521 1517 1514 1512 1510 1507 1505 1502 1498 1495 1493 1490 1487 1485 1483 1481 1479 1475 1473 1474 1474 1474 1475 1474 1471 1468 1466 1465 1463 1464 1464 1465 1466 1469 1470 1468 1469 1466 1462 1467 1478 1483 1493 1492 1495
1519 1517 1515 1512 1508 1506 1505 1503 1500 1498 1495 1491 1488 1485 1483 1481 1480 1478 1474 1472 1471 1472 1473 1472 1473 1475 1469 1467 1464 1462 1461 1462 1464 1465 1468 1468 1471 1467 1469 1460 1463 1463 1476 1480 1486 1491 1504
1512 1510 1508 1505 1503 1501 1500 1498 1496 1494 1491 1487 1484 1481 1478 1478 1477 1474 1473 1472 1475 1475 1473 1469 1469 1466 1464 1465 1463 1462 1460 1461 1464 1465 1464 1469 1468 1461 1465 1456 1452 1458 1466 1485 1486 1490 1498
1506 1503 1502 1499 1497 1497 1495 1493 1491 1490 1487 1484 1479 1477 1476 1474 1473 1472 1472 1473 1473 1475 1471 1467 1467 1465 1463 1463 1464 1461 1460 1461 1462 1466 1468 1469 1468 1465 1466 1460 1451 1456 1462 1472 1482 1482 1487
1499 1498 1495 1492 1490 1491 1489 1488 1486 1485 1482 1480 1476 1473 1471 1470 1470 1469 1470 1472 1472 1472 1472 1466 1464 1463 1462 1463 1463 1462 1461 1460 1460 1465 1464 1458 1464 1465 1462 1453 1452 1451 1456 1466 1483 1480 1488
1489 1490 1488 1487 1485 1480 1483 1483 1483 1481 1478 1475 1472 1469 1468 1469 1470 1470 1472 1472 1471 1471 1471 1462 1463 1463 1462 1461 1462 1461 1460 1462 1461 1465 1461 1459 1464 1459 1457 1463 1450 1454 1450 1460 1469 1476 1487
1478 1479 1481 1479 1479 1478 1477 1477 1478 1477 1474 1472 1469 1466 1465 1466 1467 1470 1473 1471 1470 1473 1458 1463 1462 1461 1459 1462 1463 1461 1460 1460 1460 1458 1458 1465 1463 1459 1455 1448 1445 1454 1457 1459 1466 1474 1476
1468 1469 1471 1472 1472 1470 1471 1471 1473 1472 1470 1468 1467 1464 1463 1465 1467 1469 1471 1471 1471 1474 1460 1459 1461 1461 1459 1458 1459 1460 1459 1459 1457 1455 1459 1465 1466 1465 1463 1453 1451 1453 1460 1466 1473 1480 1504
1461 1458 1459 1463 1464 1463 1467 1465 1467 1467 1467 1465 1465 1464 1463 1467 1467 1469 1471 1471 1470 1461 1459 1458 1460 1462 1460 1460 1457 1456 1455 1458 1460 1465 1471 1469 1475 1471 1469 1462 1460 1460 1470 1496 1502 1505 1504
1452 1449 1446 1452 1455 1454 1459 1459 1461 1463 1463 1463 1464 1464 1465 1466 1465 1469 1471 1472 1462 1455 1452 1452 1457 1462 1460 1460 1457 1455 1458 1460 1458 1458 1469 1471 1478 1474 1467 1463 1467 1468 1467 1485 1489 1502 1493
1442 1439 1437 1438 1445 1445 1449 1453 1455 1458 1459 1460 1463 1464 1465 1465 1465 1469 1471 1467 1462 1456 1451 1452 1461 1465 1468 1464 1461 1464 1459 1461 1462 1463 1470 1471 1477 1476 1470 1467 1469 1470 1479 1472 1479 1471 1495
1432 1430 1427 1429 1436 1439 1442 1444 1449 1452 1455 1457 1461 1464 1465 1464 1465 1468 1469 1463 1458 1456 1455 1451 1451 1456 1458 1464 1462 1462 1458 1462 1464 1465 1465 1469 1478 1472 1473 1472 1473 1473 1473 1486 1493 1496 1488
1422 1420 1418 1419 1425 1428 1434 1437 1442 1447 1451 1455 1459 1462 1463 1463 1466 1467 1464 1462 1459 1455 1456 1454 1453 1456 1463 1467 1462 1458 1463 1466 1464 1465 1464 1464 1470 1484 1476 1476 1477 1480 1488 1477 1478 1490 1497
1413 1408 1405 1408 1415 1421 1426 1431 1437 1443 1447 1452 1457 1460 1461 1462 1466 1462 1460 1459 1458 1454 1455 1453 1453 1454 1456 1459 1459 1458 1465 1464 1463 1464 1464 1466 1474 1482 1483 1479 1477 1476 1475 1475 1491 1494 1491
1404 1399 1394 1396 1406 1413 1419 1425 1431 1438 1442 1447 1454 1457 1459 1461 1458 1455 1455 1455 1455 1454 1454 1453 1452 1454 1453 1454 1460 1459 1465 1469 1467 1467 1467 1466 1476 1485 1488 1483 1477 1480 1475 1473 1477 1487 1495
1397 1389 1385 1391 1400 1406 1413 1420 1426 1434 1439 1445 1450 1455 1458 1459 1457 1456 1450 1452 1454 1456 1455 1454 1452 1452 1452 1453 1452 1459 1465 1468 1469 1468 1469 1470 1471 1477 1479 1475 1472 1480 1474 1473 1479 1500 1488
1390 1384 1382 1386 1395 1400 1406 1413 1423 1430 1435 1441 1443 1444 1447 1453 1452 1451 1450 1449 1450 1454 1454 1454 1452 1450 1448 1453 1456 1463 1466 1470 1470 1470 1470 1471 1475 1481 1473 1472 1472 1470 1472 1474 1482 1481 1489
1391 1383 1386 1384 1390 1396 1403 1409 1418 1426 1431 1436 1438 1440 1444 1440 1444 1448 1450 1450 1448 1454 1455 1453 1452 1452 1451 1453 1457 1458 1463 1465 1466 1468 1468 1469 1482 1479 1485 1473 1474 1476 1473 1471 1471 1474 1476
1385 1379 1377 1380 1386 1393 1399 1406 1414 1420 1426 1431 1433 1435 1437 1440 1444 1447 1446 1447 1450 1454 1458 1456 1455 1454 1458 1463 1463 1463 1464 1464 1464 1466 1467 1468 1479 1484 1478 1474 1475 1484 1473 1472 1470 1469 1472
1372 1369 1376 1378 1382 1389 1396 1403 1411 1416 1421 1425 1428 1433 1435 1441 1442 1443 1445 1450 1455 1458 1456 1460 1459 1456 1465 1465 1466 1466 1466 1466 1467 1470 1469 1472 1475 1483 1490 1482 1496 1473 1469 1470 1469 1471 1472
1373 1371 1372 1373 1378 1386 1393 1401 1409 1414 1418 1423 1426 1430 1432 1437 1440 1445 1448 1452 1459 1460 1460 1461 1463 1464 1464 1466 1465 1467 1470 1470 1471 1470 1471 1472 1474 1484 1490 1488 1472 1474 1474 1473 1472 1480 1478
1366 1357 1366 1373 1378 1385 1391 1400 1407 1412 1416 1421 1425 1428 1431 1434 1444 1445 1449 1452 1457 1458 1462 1462 1464 1464 1464 1463 1462 1464 1468 1461 1471 1474 1472 1469 1469 1477 1480 1486 1474 1473 1472 1472 1471 1481 1481
1365 1372 1370 1375 1379 1384 1390 1400 1406 1410 1414 1419 1424 1428 1430 1437 1446 1446 1449 1453 1453 1455 1457 1461 1463 1465 1465 1463 1464 1463 1467 1464 1469 1469 1473 1475 1474 1481 1481 1485 1474 1474 1473 1473 1480 1489 1482
1371 1371 1376 1378 1382 1387 1392 1400 1405 1409 1413 1418 1422 1427 1429 1438 1448 1449 1450 1452 1454 1456 1457 1462 1465 1466 1467 1465 1463 1466 1467 1467 1466 1466 1466 1474 1479 1480 1479 1482 1490 1476 1475 1478 1484 1482 1483
1367 1366 1373 1380 1384 1389 1394 1401 1405 1408 1413 1417 1420 1425 1429 1435 1449 1452 1453 1455 1456 1459 1461 1462 1465 1465 1468 1469 1468 1468 1470 1469 1467 1474 1470 1476 1475 1475 1473 1476 1473 1474 1476 1478 1479 1480 1481